星链-1596 (STARLINK-1596 )

导读 | 豆包AI

STARLINK-1596是美国太空探索技术公司(SpaceX)星链(Starlink)项目中的一颗低轨通信卫星,于2020年8月18日发射升空,属于星链计划第一批组网卫星,旨在为全球提供高速互联网接入服务,尤其支持偏远地区通信,推动全球互联网络覆盖,目前该卫星仍在近地轨道运行,服务星链星座的通信网络。

基本信息
目录编号:
46141
目录名称:
STARLINK-1596
国际标识:
2020-057AA
轨道中心:
EARTH
卫星名称:
星链-1596
卫星全名:
星链-1596 (STARLINK-1596 )
卫星状态:
在轨 (已飞行2055 天)
发射日期:
2020-08-18 UTC
国别 :
美国 (US)
星等 :
--
轨道信息
数据来源 国际轨道数据
星历时间: 2026-04-03T16:48:13+0800
18小时前
查看轨道信息
半长轴: 6798.447km
偏心率: 0.0002066
轨道倾角: 53.039°
近地点辐角 28.721°
升交点赤经 112.944°
平近点角 331.391°
近地点: 418.905km
远地点: 421.715km
周期: 92.977分钟
每日圈数: 15.487745
详细信息
固有亮度:
5
最大亮度:
2.5
卫星平台:
Starlink V1.0
覆盖范围:
全球
运营商:
太空探索技术公司
运营商所在国:
美国
制造商(研发单位):
太空探索技术公司
制造商所在国:
美国
使用方式:
暂无
卫星简介
星链(Starlink)计划是由太空探索技术公司(SpaceX)提出的一个巨型低轨卫星互联网星座项目,计划在2019年至2024年间在太空搭建由约1.2万颗卫星组成的“星链”网络,其中1584颗将部署在地球上空550千米处的近地轨道,并从2020年开始工作。该卫星仍在工作。
2D轨道图
3D轨道图
轨道高度分析图
轨道倾角分析图
轨道综合分析图
查看轨道综合分析图